FW5169 Weather Reports


Display with metric or nautical units.
time (UTC)temp
F
wind
direction
speed
MPH
gust
MPH
rain 1hr
in
rain 24hr
in
rain mn
in
humidity
%
barometer
mb
20260504050321 54 231 0.0 0.0 0.01 0.01 0.00 78 1008.6
20260504044825 55 231 0.0 0.0 0.00 0.00 0.00 76 1008.8
20260504043335 56 231 0.0 0.0 0.00 0.00 0.00 74 1008.9
20260504041819 57 231 0.0 0.0 0.00 0.00 0.00 73 1008.9
20260504040327 57 231 0.0 3.0 0.00 0.00 0.00 73 1008.9
20260504034834 57 212 0.0 0.0 0.00 0.00 0.00 73 1009.0
20260504033321 57 220 0.0 1.0 0.00 0.00 0.00 73 1009.2
20260504031826 57 220 0.0 2.0 0.00 0.00 0.00 73 1009.3
20260504030334 58 233 0.0 2.0 0.00 0.00 0.00 72 1009.2
20260504024837 57 233 0.0 0.0 0.00 0.00 0.00 73 1009.2
20260504023318 58 233 0.0 0.0 0.00 0.00 0.00 72 1009.2
20260504021826 60 234 0.0 0.0 0.00 0.00 0.00 68 1009.2
20260504020351 61 233 0.0 2.0 0.00 0.00 0.00 66 1009.0
20260504014835 62 217 0.0 2.0 0.00 0.00 0.00 64 1009.0
20260504013325 63 233 1.0 5.0 0.00 0.00 0.00 61 1008.9
20260504011827 64 250 1.0 4.0 0.00 0.00 0.00 60 1008.7
20260504010333 65 237 1.0 5.0 0.00 0.00 0.00 58 1008.7
20260504004818 66 245 2.0 9.0 0.00 0.00 0.00 56 1008.7
20260504003323 67 264 3.0 7.0 0.00 0.00 0.00 55 1008.7
20260504001848 68 151 2.0 10.0 0.00 0.00 0.00 54 1008.8
20260504000334 69 246 4.0 6.0 0.00 0.00 0.00 53 1008.6
20260503234822 69 248 3.0 10.0 0.00 0.00 0.00 54 1008.8
20260503233327 68 267 4.0 11.0 0.00 0.00 0.00 54 1008.8